Location: Waco, TX
(31.5480°N, 97.1670°W)
Time: 02:52:24
(UTC-05:00)

ISS - All Passes

Search period start: 17 August 2017 00:00
Search period end: 27 August 2017 00:00
Orbit: 401 x 408 km, 51.6° (Epoch: 17 August)

Date Brightness Start Highest point End Pass type
(mag) Time Alt. Az. Time Alt. Az. Time Alt. Az.
17 Aug - 11:56:25 10° SW 11:59:39 60° NW 12:02:54 10° NE daylight
17 Aug - 18:29:11 10° N 18:31:03 14° NNE 18:32:54 10° ENE daylight
17 Aug - 20:04:34 10° WNW 20:07:42 46° SW 20:10:49 10° SSE daylight
18 Aug - 11:04:13 10° SSW 11:07:25 56° SE 11:10:39 10° NE daylight
18 Aug - 12:42:32 10° WNW 12:44:08 13° NNW 12:45:44 10° N daylight
18 Aug - 19:12:14 10° NW 19:15:29 71° NE 19:18:43 10° SE daylight
19 Aug - 10:12:33 10° S 10:15:15 24° SE 10:17:58 10° ENE daylight
19 Aug - 11:49:01 10° W 11:51:40 22° NW 11:54:20 10° NNE daylight
19 Aug - 18:20:12 10° NNW 18:23:10 31° NE 18:26:07 10° ESE daylight
19 Aug - 19:57:23 10° W 19:59:24 16° SW 20:01:26 10° SSW daylight
20 Aug - 09:22:08 10° SE 09:23:09 11° SE 09:24:11 10° ESE daylight
20 Aug - 10:56:08 10° WSW 10:59:17 44° NW 11:02:26 10° NNE daylight
20 Aug - 17:28:29 10° N 17:30:44 17° NE 17:32:59 10° E daylight
20 Aug - 19:04:17 10° WNW 19:07:16 34° SW 19:10:15 10° SSE daylight
21 Aug - 10:03:43 10° SW 10:06:59 78° SE 10:10:16 10° NE daylight
21 Aug - 11:42:57 10° NW 11:43:48 11° NNW 11:44:39 10° NNW daylight
21 Aug - 16:37:56 10° NNE 16:38:11 10° NNE 16:38:27 10° NE daylight
21 Aug - 18:11:48 10° NW 18:15:02 84° SW 18:18:17 10° SE daylight
22 Aug - 09:11:48 10° SSW 09:14:45 32° SE 09:17:43 10° ENE daylight
22 Aug - 10:48:54 10° W 10:51:16 18° NW 10:53:39 10° N daylight
22 Aug - 17:19:36 10° NNW 17:22:43 41° NE 17:25:49 10° ESE daylight
22 Aug - 18:57:36 10° WSW 18:58:52 12° SW 19:00:09 10° SSW daylight
23 Aug - 08:20:41 10° SSE 08:22:35 15° SE 08:24:30 10° E daylight
23 Aug - 09:55:47 10° WSW 09:58:48 34° NW 10:01:51 10° NNE daylight
23 Aug - 16:27:43 10° NNW 16:30:17 21° NE 16:32:50 10° E daylight
23 Aug - 18:03:58 10° WNW 18:06:44 26° SW 18:09:29 10° S daylight
24 Aug - 09:03:10 10° SW 09:06:27 78° NW 09:09:44 10° NE daylight
24 Aug - 15:36:21 10° N 15:37:45 12° NNE 15:39:08 10° ENE daylight
24 Aug - 17:11:17 10° NW 17:14:30 61° SW 17:17:41 10° SSE daylight
25 Aug - 08:11:02 10° SSW 08:14:09 42° SE 08:17:17 10° ENE daylight
25 Aug - 09:48:45 10° WNW 09:50:46 15° NW 09:52:47 10° N daylight
25 Aug - 16:18:57 10° NW 16:22:10 54° NE 16:25:21 10° ESE daylight
26 Aug - 07:19:31 10° S 07:21:55 19° SE 07:24:20 10° E daylight
26 Aug - 08:55:23 10° W 08:58:15 27° NW 09:01:06 10° NNE daylight
26 Aug - 15:26:55 10° NNW 15:29:43 26° NE 15:32:31 10° E daylight
26 Aug - 17:03:36 10° W 17:06:03 20° SW 17:08:29 10° S daylight
